K5GHS-1 Weather Reports


time (UTC)temp
C
wind
direction
speed
KPH
gust
KPH
rain 1hr
cm
rain 24hr
cm
rain mn
cm
humidity
%
barometer
mb
20260902102451 26 80 0.0 0.0 0.00 0.00 0.00 74 1014.4
20260902101948 26 74 0.0 0.0 0.00 0.00 0.00 74 1014.2
20260902101448 26 73 0.0 0.0 0.00 0.00 0.00 74 1014.0
20260902100946 27 72 0.0 0.0 0.00 0.00 0.00 74 1014.2
20260902100442 27 74 0.0 0.0 0.00 0.00 0.00 74 1014.2
20260902095942 27 76 0.0 0.0 0.00 0.00 0.00 74 1014.3
20260902095436 26 81 0.0 0.0 0.00 0.00 0.00 75 1014.1
20260902094935 26 71 0.0 0.0 0.00 0.00 0.00 75 1014.1
20260902094432 26 71 0.0 0.0 0.00 0.00 0.00 75 1014.1
20260902093926 26 70 0.0 0.0 0.00 0.00 0.00 74 1014.1
20260902093422 27 70 0.0 0.0 0.00 0.00 0.00 74 1014.1
20260902092920 27 78 0.0 0.0 0.00 0.00 0.00 74 1014.1
20260902092416 27 75 0.0 0.0 0.00 0.00 0.00 74 1013.9
20260902091911 27 73 0.0 0.0 0.00 0.00 0.00 74 1014.0
20260902091406 27 74 0.0 0.0 0.00 0.00 0.00 74 1013.9
20260902090903 27 71 0.0 0.0 0.00 0.00 0.00 74 1014.2
20260902090402 27 71 0.0 0.0 0.00 0.00 0.00 73 1014.1
20260902085901 27 71 0.0 0.0 0.00 0.00 0.00 73 1014.0
20260902085356 27 74 0.0 0.0 0.00 0.00 0.00 72 1013.9
20260902084852 27 73 0.0 0.0 0.00 0.00 0.00 72 1014.0
20260902084348 27 76 0.0 0.0 0.00 0.00 0.00 72 1014.0
20260902083843 27 72 0.0 0.0 0.00 0.00 0.00 71 1014.0
20260902083338 27 75 0.0 0.0 0.00 0.00 0.00 71 1013.9
20260902082833 27 73 0.0 0.0 0.00 0.00 0.00 71 1013.9
20260902082329 28 74 0.0 0.0 0.00 0.00 0.00 70 1014.0
20260902081825 28 74 0.0 0.0 0.00 0.00 0.00 70 1014.0
20260902081320 28 95 0.0 0.0 0.00 0.00 0.00 70 1014.0
20260902080814 28 76 0.0 1.6 0.00 0.00 0.00 70 1014.0
20260902080312 28 72 0.0 0.0 0.00 0.00 0.00 69 1014.1
20260902075811 28 77 0.0 1.6 0.00 0.00 0.00 69 1013.9
20260902075307 28 80 3.2 3.2 0.00 0.00 0.00 69 1013.9
20260902074802 28 77 0.0 3.2 0.00 0.00 0.00 68 1014.0
20260902074258 28 84 0.0 1.6 0.00 0.00 0.00 68 1014.1
20260902073753 28 77 0.0 1.6 0.00 0.00 0.00 68 1014.0
20260902073249 28 84 0.0 0.0 0.00 0.00 0.00 68 1014.1
20260902072744 28 79 0.0 1.6 0.00 0.00 0.00 68 1014.1
20260902072240 28 74 0.0 0.0 0.00 0.00 0.00 68 1014.1
20260902071736 28 77 0.0 0.0 0.00 0.00 0.00 68 1014.0
20260902071231 28 118 1.6 1.6 0.00 0.00 0.00 68 1014.1
20260902070728 28 76 0.0 0.0 0.00 0.00 0.00 68 1013.9
20260902070227 28 75 0.0 0.0 0.00 0.00 0.00 68 1014.0
20260902065726 28 77 0.0 1.6 0.00 0.00 0.00 68 1014.2
20260902065221 28 77 0.0 3.2 0.00 0.00 0.00 68 1014.0
20260902064717 28 82 0.0 1.6 0.00 0.00 0.00 68 1014.1
20260902064212 29 84 1.6 1.6 0.00 0.00 0.00 68 1013.9
20260902063708 29 81 1.6 3.2 0.00 0.00 0.00 68 1014.0
20260902063207 29 81 0.0 1.6 0.00 0.00 0.00 67 1013.8
20260902062702 29 78 0.0 3.2 0.00 0.00 0.00 67 1013.9
20260902062157 29 76 0.0 0.0 0.00 0.00 0.00 67 1013.9
20260902061655 29 89 0.0 0.0 0.00 0.00 0.00 67 1013.8
20260902061151 29 79 3.2 4.8 0.00 0.00 0.00 67 1013.9
20260902060648 30 81 0.0 1.6 0.00 0.00 0.00 66 1013.9
20260902060144 30 102 0.0 3.2 0.00 0.00 0.00 66 1013.8
20260902055639 30 105 1.6 1.6 0.00 0.00 0.00 66 1013.9
20260902055135 30 110 1.6 3.2 0.00 0.00 0.00 65 1014.1
20260902054630 30 90 1.6 1.6 0.00 0.00 0.00 65 1014.0
20260902054126 30 85 0.0 1.6 0.00 0.00 0.00 64 1013.8
20260902053620 30 109 0.0 3.2 0.00 0.00 0.00 64 1014.0
20260902053115 30 77 0.0 1.6 0.00 0.00 0.00 64 1013.9
20260902052609 30 87 1.6 3.2 0.00 0.00 0.00 63 1013.9
20260902052105 30 74 0.0 1.6 0.00 0.00 0.00 63 1013.9
20260902051604 30 124 3.2 4.8 0.00 0.00 0.00 63 1014.1
20260902051103 30 95 1.6 8.0 0.00 0.00 0.00 63 1013.7
20260902050558 30 75 0.0 1.6 0.00 0.00 0.00 62 1013.6
20260902050053 30 104 1.6 8.0 0.00 0.00 0.00 61 1013.5
20260902045548 31 83 1.6 1.6 0.00 0.00 0.00 61 1013.6
20260902045044 31 92 0.0 1.6 0.00 0.00 0.00 61 1013.9
20260902044539 31 110 1.6 3.2 0.00 0.00 0.00 61 1013.9
20260902044035 31 74 0.0 0.0 0.00 0.00 0.00 60 1013.6
20260902043530 31 111 1.6 8.0 0.00 0.00 0.00 60 1013.7
20260902043025 31 86 1.6 8.0 0.00 0.00 0.00 58 1013.6
20260902042524 31 52 3.2 9.7 0.00 0.00 0.00 58 1013.7
20260902042019 31 76 0.0 9.7 0.00 0.00 0.00 58 1013.4
20260902041514 31 71 0.0 4.8 0.00 0.00 0.00 58 1013.8
20260902041008 31 77 1.6 8.0 0.00 0.00 0.00 57 1013.7
20260902040503 31 78 1.6 4.8 0.00 0.00 0.00 57 1013.4
20260902040002 31 116 4.8 9.7 0.00 0.00 0.00 58 1013.2
20260902035456 31 71 1.6 3.2 0.00 0.00 0.00 59 1013.4
20260902034950 31 78 0.0 3.2 0.00 0.00 0.00 58 1013.4
20260902034445 31 75 0.0 0.0 0.00 0.00 0.00 58 1013.2
20260902033944 31 75 0.0 0.0 0.00 0.00 0.00 57 1013.4
20260902033438 31 85 0.0 0.0 0.00 0.00 0.00 57 1013.1
20260902032937 31 72 0.0 0.0 0.00 0.00 0.00 56 1013.1
20260902032432 31 75 0.0 3.2 0.00 0.00 0.00 56 1013.4
20260902031927 31 74 0.0 0.0 0.00 0.00 0.00 56 1013.2
20260902031422 32 70 0.0 0.0 0.00 0.00 0.00 56 1013.1
20260902030918 31 79 0.0 1.6 0.00 0.00 0.00 56 1013.0
20260902030413 32 78 0.0 0.0 0.00 0.00 0.00 56 1013.1
20260902025911 32 76 0.0 0.0 0.00 0.00 0.00 56 1012.8
20260902025407 32 73 0.0 1.6 0.00 0.00 0.00 56 1013.0
20260902024902 32 70 0.0 1.6 0.00 0.00 0.00 55 1013.1
20260902024357 32 76 0.0 1.6 0.00 0.00 0.00 55 1012.6
20260902023853 32 76 0.0 1.6 0.00 0.00 0.00 55 1012.7
20260902023348 32 76 0.0 0.0 0.00 0.00 0.00 55 1012.7
20260902022847 32 72 0.0 0.0 0.00 0.00 0.00 55 1012.6
20260902022342 32 68 0.0 1.6 0.00 0.00 0.00 55 1012.4
20260902021838 32 71 0.0 1.6 0.00 0.00 0.00 54 1012.3
20260902021333 32 75 0.0 0.0 0.00 0.00 0.00 53 1012.3
20260902020828 33 75 0.0 4.8 0.00 0.00 0.00 52 1012.2
20260902020325 33 54 1.6 8.0 0.00 0.00 0.00 52 1012.2
20260902015820 33 47 0.0 1.6 0.00 0.00 0.00 50 1012.3
20260902015316 33 87 0.0 1.6 0.00 0.00 0.00 49 1012.1
20260902014811 33 70 0.0 1.6 0.00 0.00 0.00 49 1011.8
20260902014308 33 76 0.0 0.0 0.00 0.00 0.00 49 1011.8
20260902013806 33 76 1.6 1.6 0.00 0.00 0.00 50 1011.6
20260902013302 33 74 0.0 0.0 0.00 0.00 0.00 49 1011.4
20260902012757 33 77 0.0 0.0 0.00 0.00 0.00 49 1011.4
20260902012253 33 76 0.0 1.6 0.00 0.00 0.00 49 1011.4
20260902011749 33 77 0.0 0.0 0.00 0.00 0.00 49 1011.6
20260902011248 33 74 0.0 0.0 0.00 0.00 0.00 48 1011.6
20260902010741 33 75 0.0 0.0 0.00 0.00 0.00 48 1011.4
20260902010237 33 74 0.0 0.0 0.00 0.00 0.00 48 1011.4
20260902005736 34 74 0.0 0.0 0.00 0.00 0.00 47 1011.3
20260902005231 34 76 0.0 1.6 0.00 0.00 0.00 46 1011.2
20260902004725 34 72 0.0 0.0 0.00 0.00 0.00 46 1011.2
20260902004220 34 81 0.0 1.6 0.00 0.00 0.00 45 1011.4
20260902003715 35 83 0.0 3.2 0.00 0.00 0.00 45 1011.5
20260902003211 35 84 0.0 0.0 0.00 0.00 0.00 45 1011.6
20260902002706 35 75 0.0 1.6 0.00 0.00 0.00 44 1011.6
20260902002200 35 76 0.0 1.6 0.00 0.00 0.00 44 1011.5
20260902001655 35 56 3.2 4.8 0.00 0.00 0.00 43 1011.7
20260902001150 35 77 0.0 1.6 0.00 0.00 0.00 43 1011.6
20260902000645 35 74 0.0 8.0 0.00 0.00 0.00 43 1011.8
20260902000140 35 68 1.6 3.2 0.00 0.00 0.00 43 1011.8
20260901235640 35 72 0.0 8.0 0.00 0.00 0.00 44 1011.8
20260901235135 35 80 1.6 1.6 0.00 0.00 0.00 44 1011.7
20260901234634 35 71 0.0 3.2 0.00 0.00 0.00 43 1011.7
20260901234130 35 74 0.0 3.2 0.00 0.00 0.00 43 1011.7
20260901233624 35 73 1.6 3.2 0.00 0.00 0.00 43 1011.8
20260901233121 36 92 0.0 1.6 0.00 0.00 0.00 42 1011.8
20260901232620 36 105 1.6 4.8 0.00 0.00 0.00 43 1011.7
20260901232115 36 86 1.6 3.2 0.00 0.00 0.00 42 1012.0
20260901231613 36 121 1.6 1.6 0.00 0.00 0.00 42 1011.9
20260901231108 36 127 3.2 4.8 0.00 0.00 0.00 41 1011.9
20260901230604 37 127 1.6 11.3 0.00 0.00 0.00 40 1011.8
20260901230103 37 80 1.6 8.0 0.00 0.00 0.00 40 1011.9
20260901225559 37 96 0.0 4.8 0.00 0.00 0.00 40 1011.9
20260901225058 37 36 3.2 4.8 0.00 0.00 0.00 39 1011.8
20260901224554 37 70 4.8 4.8 0.00 0.00 0.00 39 1012.0
20260901224050 38 96 0.0 1.6 0.00 0.00 0.00 38 1011.9
20260901223546 37 95 1.6 3.2 0.00 0.00 0.00 39 1011.7
20260901223041 38 94 0.0 1.6 0.00 0.00 0.00 38 1011.7
20260901222537 37 61 4.8 8.0 0.00 0.00 0.00 38 1011.8
20260901222033 37 118 3.2 9.7 0.00 0.00 0.00 39 1011.9
20260901221529 38 96 3.2 4.8 0.00 0.00 0.00 38 1011.8
20260901221024 38 75 0.0 3.2 0.00 0.00 0.00 38 1012.0
20260901220523 38 74 1.6 3.2 0.00 0.00 0.00 38 1012.0
20260901220022 38 62 1.6 4.8 0.00 0.00 0.00 38 1012.0
20260901215521 38 64 0.0 0.0 0.00 0.00 0.00 38 1011.8
20260901215021 38 80 1.6 4.8 0.00 0.00 0.00 38 1012.1
20260901214519 38 84 0.0 3.2 0.00 0.00 0.00 39 1012.1
20260901214014 38 54 4.8 8.0 0.00 0.00 0.00 38 1012.1
20260901213508 37 68 1.6 8.0 0.00 0.00 0.00 39 1012.3
20260901213002 37 64 3.2 3.2 0.00 0.00 0.00 39 1012.4
20260901212457 37 105 1.6 8.0 0.00 0.00 0.00 40 1012.3
20260901211954 37 106 1.6 4.8 0.00 0.00 0.00 40 1012.5
20260901211449 38 56 4.8 4.8 0.00 0.00 0.00 39 1012.5
20260901210944 37 75 1.6 3.2 0.00 0.00 0.00 40 1012.5
20260901210440 36 106 3.2 4.8 0.00 0.00 0.00 42 1012.5
20260901205936 37 78 3.2 9.7 0.00 0.00 0.00 42 1012.5
20260901205430 37 84 1.6 9.7 0.00 0.00 0.00 40 1012.8
20260901204925 37 9 0.0 3.2 0.00 0.00 0.00 42 1012.7
20260901204422 37 132 4.8 9.7 0.00 0.00 0.00 41 1012.7
20260901203922 37 89 0.0 8.0 0.00 0.00 0.00 41 1013.0
20260901203416 37 64 4.8 8.0 0.00 0.00 0.00 41 1012.8
20260901202912 37 104 0.0 4.8 0.00 0.00 0.00 41 1013.1
20260901202406 37 91 6.4 8.0 0.00 0.00 0.00 41 1013.0
20260901201902 37 84 4.8 9.7 0.00 0.00 0.00 42 1013.0
20260901201402 36 60 4.8 8.0 0.00 0.00 0.00 42 1013.3
20260901200856 37 81 3.2 8.0 0.00 0.00 0.00 42 1013.3
20260901200351 37 79 3.2 4.8 0.00 0.00 0.00 41 1013.4
20260901195850 37 110 1.6 3.2 0.00 0.00 0.00 41 1013.6
20260901195343 37 62 0.0 8.0 0.00 0.00 0.00 41 1013.3
20260901194838 37 79 1.6 4.8 0.00 0.00 0.00 42 1013.5
20260901194333 37 65 0.0 0.0 0.00 0.00 0.00 40 1013.5
20260901193830 37 68 0.0 1.6 0.00 0.00 0.00 42 1013.6
20260901193328 37 115 1.6 9.7 0.00 0.00 0.00 43 1013.7
20260901192822 37 102 3.2 8.0 0.00 0.00 0.00 42 1013.7
20260901192318 37 77 1.6 3.2 0.00 0.00 0.00 42 1013.8
20260901191815 37 90 3.2 11.3 0.00 0.00 0.00 42 1013.9
20260901191310 37 73 0.0 4.8 0.00 0.00 0.00 42 1013.8
20260901190806 36 55 1.6 3.2 0.00 0.00 0.00 43 1014.2
20260901190306 36 34 4.8 4.8 0.00 0.00 0.00 42 1013.9
20260901185804 37 32 6.4 9.7 0.00 0.00 0.00 42 1014.2
20260901185305 36 69 1.6 4.8 0.00 0.00 0.00 43 1014.3
20260901184758 36 113 4.8 9.7 0.00 0.00 0.00 42 1014.4
20260901184254 36 225 1.6 3.2 0.00 0.00 0.00 45 1014.3
20260901183750 36 80 1.6 8.0 0.00 0.00 0.00 45 1014.8
20260901183249 36 63 1.6 4.8 0.00 0.00 0.00 44 1014.7
20260901182745 35 114 3.2 8.0 0.00 0.00 0.00 46 1014.7
20260901182244 35 80 0.0 4.8 0.00 0.00 0.00 47 1014.8
20260901181739 36 63 1.6 8.0 0.00 0.00 0.00 47 1014.8
20260901181234 36 358 3.2 8.0 0.00 0.00 0.00 46 1014.9
20260901180733 36 84 3.2 8.0 0.00 0.00 0.00 47 1014.9
20260901180232 35 111 1.6 3.2 0.00 0.00 0.00 48 1015.0
20260901175731 35 67 0.0 1.6 0.00 0.00 0.00 50 1015.1
20260901175226 35 54 6.4 8.0 0.00 0.00 0.00 50 1015.4
20260901174721 34 80 0.0 1.6 0.00 0.00 0.00 50 1015.4
20260901174217 35 70 0.0 1.6 0.00 0.00 0.00 49 1015.5
20260901173713 35 75 0.0 1.6 0.00 0.00 0.00 48 1015.4
20260901173208 36 78 0.0 4.8 0.00 0.00 0.00 46 1015.4
20260901172704 36 76 0.0 1.6 0.00 0.00 0.00 46 1015.7
20260901172203 36 115 3.2 8.0 0.00 0.00 0.00 45 1015.6
20260901171701 36 76 0.0 1.6 0.00 0.00 0.00 46 1015.7
20260901171155 36 77 0.0 3.2 0.00 0.00 0.00 47 1015.7
20260901170654 35 150 1.6 3.2 0.00 0.00 0.00 48 1016.0
20260901170149 35 45 1.6 4.8 0.00 0.00 0.00 49 1015.8
20260901165648 35 51 1.6 1.6 0.00 0.00 0.00 48 1016.0
20260901165143 35 77 0.0 3.2 0.00 0.00 0.00 49 1016.2
20260901164639 35 81 0.0 1.6 0.00 0.00 0.00 49 1016.0
20260901164134 35 99 0.0 3.2 0.00 0.00 0.00 48 1016.3
20260901163630 35 93 3.2 4.8 0.00 0.00 0.00 49 1016.1
20260901163128 35 35 4.8 4.8 0.00 0.00 0.00 49 1016.0
20260901162624 35 100 1.6 1.6 0.00 0.00 0.00 49 1016.3
20260901162123 35 155 1.6 3.2 0.00 0.00 0.00 50 1015.8
20260901161623 35 99 1.6 1.6 0.00 0.00 0.00 49 1016.0
20260901161122 35 119 0.0 1.6 0.00 0.00 0.00 50 1016.2
20260901160619 35 83 0.0 1.6 0.00 0.00 0.00 50 1016.2
20260901160114 35 85 0.0 3.2 0.00 0.00 0.00 50 1016.0
20260901155613 35 74 0.0 4.8 0.00 0.00 0.00 50 1016.2
20260901155109 34 124 1.6 1.6 0.00 0.00 0.00 50 1016.3
20260901154608 34 86 0.0 1.6 0.00 0.00 0.00 52 1016.1
20260901154103 34 70 0.0 1.6 0.00 0.00 0.00 51 1016.0
20260901153558 34 89 0.0 1.6 0.00 0.00 0.00 52 1016.0
20260901153051 34 116 0.0 1.6 0.00 0.00 0.00 51 1016.1
20260901152547 33 70 0.0 1.6 0.00 0.00 0.00 54 1016.0
20260901152045 33 108 1.6 3.2 0.00 0.00 0.00 54 1016.2
20260901151541 33 81 0.0 0.0 0.00 0.00 0.00 53 1016.0
20260901151035 33 83 0.0 3.2 0.00 0.00 0.00 54 1016.0
20260901150533 33 72 0.0 3.2 0.00 0.00 0.00 55 1016.1
20260901150032 32 89 1.6 4.8 0.00 0.00 0.00 57 1016.0
20260901145530 33 172 1.6 1.6 0.00 0.00 0.00 55 1016.3
20260901145025 33 81 0.0 1.6 0.00 0.00 0.00 56 1016.1
20260901144521 33 76 0.0 4.8 0.00 0.00 0.00 57 1015.9
20260901144015 32 74 0.0 3.2 0.00 0.00 0.00 58 1016.1
20260901143511 32 88 0.0 3.2 0.00 0.00 0.00 57 1016.1
20260901143007 32 74 0.0 0.0 0.00 0.00 0.00 59 1016.2
20260901142502 31 74 0.0 1.6 0.00 0.00 0.00 60 1016.2
20260901141956 31 79 0.0 1.6 0.00 0.00 0.00 61 1016.3
20260901141450 31 188 3.2 3.2 0.00 0.00 0.00 61 1016.3
20260901140946 31 99 1.6 1.6 0.00 0.00 0.00 62 1016.3
20260901140443 30 95 1.6 1.6 0.00 0.00 0.00 64 1016.4
20260901135938 30 73 0.0 3.2 0.00 0.00 0.00 64 1016.4
20260901135433 30 80 0.0 3.2 0.00 0.00 0.00 64 1016.4
20260901134929 30 66 3.2 3.2 0.00 0.00 0.00 64 1016.0
20260901134425 29 73 0.0 1.6 0.00 0.00 0.00 66 1016.4
20260901133924 28 64 0.0 1.6 0.00 0.00 0.00 67 1016.3
20260901133423 28 67 3.2 3.2 0.00 0.00 0.00 69 1016.2
20260901132922 27 88 1.6 3.2 0.00 0.00 0.00 71 1016.1
20260901132417 27 72 0.0 0.0 0.00 0.00 0.00 71 1016.2
20260901131916 27 82 1.6 3.2 0.00 0.00 0.00 72 1016.1
20260901131416 27 73 0.0 1.6 0.00 0.00 0.00 72 1016.2
20260901130912 27 69 0.0 1.6 0.00 0.00 0.00 72 1016.2
20260901130406 26 72 0.0 1.6 0.00 0.00 0.00 73 1016.1
20260901125904 26 78 0.0 1.6 0.00 0.00 0.00 72 1015.9
20260901125403 26 84 0.0 1.6 0.00 0.00 0.00 72 1015.9
20260901124858 26 76 0.0 1.6 0.00 0.00 0.00 73 1015.7
20260901124354 26 76 0.0 1.6 0.00 0.00 0.00 73 1015.7
20260901123853 26 76 0.0 0.0 0.00 0.00 0.00 74 1015.7
20260901123348 26 67 0.0 0.0 0.00 0.00 0.00 74 1015.5
20260901122846 26 75 0.0 0.0 0.00 0.00 0.00 74 1015.6
20260901122341 26 75 0.0 0.0 0.00 0.00 0.00 74 1015.3
20260901121840 26 75 0.0 0.0 0.00 0.00 0.00 74 1015.5
20260901121336 26 75 0.0 0.0 0.00 0.00 0.00 73 1015.3
20260901120830 26 75 0.0 0.0 0.00 0.00 0.00 73 1015.4
20260901120325 26 75 0.0 0.0 0.00 0.00 0.00 73 1015.2
20260901115821 26 76 0.0 0.0 0.00 0.00 0.00 73 1015.0
20260901115316 26 71 0.0 0.0 0.00 0.00 0.00 72 1015.1
20260901114814 26 72 0.0 0.0 0.00 0.00 0.00 71 1015.2
20260901114308 26 68 0.0 0.0 0.00 0.00 0.00 71 1015.2
20260901113806 26 75 0.0 0.0 0.00 0.00 0.00 71 1015.0
20260901113301 26 73 0.0 0.0 0.00 0.00 0.00 70 1015.0
20260901112756 27 72 0.0 0.0 0.00 0.00 0.00 70 1014.7
20260901112256 26 80 0.0 0.0 0.00 0.00 0.00 70 1014.9
20260901111751 27 73 0.0 0.0 0.00 0.00 0.00 70 1014.7
20260901111249 27 72 0.0 0.0 0.00 0.00 0.00 69 1014.8
20260901110749 27 70 0.0 1.6 0.00 0.00 0.00 69 1014.6
20260901110244 27 76 0.0 0.0 0.00 0.00 0.00 69 1014.7
20260901105741 27 73 0.0 0.0 0.00 0.00 0.00 68 1014.7
20260901105240 27 74 0.0 1.6 0.00 0.00 0.00 68 1014.9
20260901104736 27 80 0.0 1.6 0.00 0.00 0.00 68 1014.7
20260901104232 27 72 0.0 0.0 0.00 0.00 0.00 68 1014.8
20260901103731 27 74 0.0 0.0 0.00 0.00 0.00 67 1014.7
20260901103226 27 82 0.0 1.6 0.00 0.00 0.00 67 1015.0